DELTA 1 DEB, 42087

Orbit data source: Space-Track

DELTA 1 DEB, 42087 is space debris in SSO originally from a launch on Sun, 15 Dec 1968 UTC launched from the Air Force Western Test Range (AFWTR). Debris objects in space refer to the collection of defunct objects orbiting the Earth. Examples of debris include non-operational satellites, rocket bodies, and fragments generated from explosions, collisions, or faulty payload assembly.

Loading next visibility...
Identifier
42087, 1968-114P
Orbit
SSO
Country
Flag of USUS
Related business
Manufacturer
Aerojet
Mission
Spacecraft
Bus & Motor
Unknown
Mass
Unknown
Launch date (UTC)
Icon of a cake. It is the launch day of the satellite!1968-12-15 (57 years ago)
Launch vehicle
Unknown
Launch site
Air Force Western Test Range (AFWTR)
Object type
Payload
Rocket body
Debris
Shape & HBR
Unknown shape, 0.1 m
Radar Cross Section
Small (<0.1 m²)

Expand to show TLE details & history
Last TLE update: 5 days ago

TLE from 5 days ago
0 DELTA 1 DEB
1 42087U 68114P   25344.64585434  .00000241  00000-0  20927-2 0  9997
2 42087 101.4309 302.7245 0203623 334.6745  24.4447 12.35451089542871
Epoch: 2025-12-10T15:30Z
TLE epoch observation values (Epoch: 2025-12-10T15:30:01.814Z)
Latitude
-0.00003°
Longitude
-9.39625°
Altitude
1,382.548 km
Speed
7.234 km/s
True Right ascension
20h 10m 53s
True Declination
0° 00' 00"
Sunlit
Object was in daylight at epoch
Visualization orbit readout
Latitude
Unknown
Longitude
Unknown
Altitude
Unknown
Speed
Unknown
Apparent Right ascension
Unknown
Apparent Declination
Unknown
Sunlit
N/A
Visualization observer readout
Local Sidereal Time
13:23:50
Azimuth
Unknown
Elevation
Unknown
Doppler factor
Unknown
Orbital elements
Apogee altitude
1,684.387 km
Perigee altitude
1,362.596 km
Semi-major axis
7,901.629 km
Eccentricity
0.02036
Inclination
101.4309°
RAAN
302.7245°
Arg. of periapsis
334.6745°
True anomaly
25.43311°
Mean anomaly
24.4447°
Eccentric anomaly
24.93659°
Mean motion
3.09007 °/min
Orbital period
116.5 mins
BSTAR
0.0020927
Loading maneuver chart data...
Computing Atmospheric mass density...
Loading historical data...
Loading historical data...
Loading historical data...
Loading historical data...
Loading historical data...
Loading historical data...
Loading historical data...

Documentation

Showing up to 5 results
|